Tracking 30995 objects as of 5-Jul-2025
HD Live streaming from Space Station
objects crossing your sky now

THOR ABLESTAR DEB

Track THOR ABLESTAR DEB now!
10-day predictions


NORAD ID: 475
Int'l Code: 1961-015FM
Perigee: 720.0 km
Apogee: 934.9 km
Inclination: 66.2 °
Period: 101.3 minutes
Semi major axis: 7198 km
RCS: 0.0538 m2 (small)
Launch date: June 29, 1961
Source: United States (US)
Launch site: AIR FORCE EASTERN TEST RANGE (AFETR)

Note: This is SATELLITE DEBRIS
Your satellite tracking list
FOX-1CLIFF (AO-95)
Track 1 satellite(s)




NASA's NSSDC Master Catalog

Two Line Element Set (TLE):
1 00475U 61015FM  25186.46170357  .00002596  00000-0  10936-2 0  9997
2 00475  66.2198 211.5902 0149301 315.5494  43.3691 14.21493120238465
Source of the keplerian elements: AFSPC